Content
SEND FEEDBACK

Daily
Averages
Monthly
Summary
Philippines

OLONGAPO, PHILIPPINES


Home > Asia > Philippines
Elevation: 55 feet     Latitude: 14 48N     Longitude: 120 16E

WEATHER
 
SELECT A DAY
Number of Records: 135,161;   Date Range: 7/31/96 - 9/16/14
 
SHARE

PRINT THIS DATA

[ ← Previous Day ]
WEATHER ALMANAC - SEPTEMBER 25, 2013
[ Next Day → ]
[ °C ]   °F
Weather ElementAverageHighLow
Temperature78.7 °F81 °F (2:00 pm)75.2 °F (4:00 am)
Dewpoint75 °F77 °F (10:00 am)73.4 °F (2:00 am)
Humidity87.8 %94 % (4:00 am)78 % (2:00 pm)
Barometer29.73 in29.76 in (11:00 am)29.71 in (2:00 am)
Wind Speed4.7 mph13.8 mph (10:00 pm)
Weather ElementAverage
Visibility5.9 mi
Wind DirectionESE (122.4 °)

Weather ElementTotal
Precipitation---
Cooling Degree Days13.1 (Base 65)
Growing Degree Days28.1 (Base 50)
Averaged from 26 records on September 25, 2013
WEATHER CONDITIONS BREAKOUT
WIND DIRECTION BREAKOUT
WEATHER BY HOUR - SEPTEMBER 25, 2013
[ °C ]   °F
Local TimeTemperatureDewpointHumidityBarometerVisibilityWind DirectionWind SpeedGust SpeedPrecipitationEventsConditions
2:00 AM77.0 °F73.4 °F89 %29.71 in5.6 miCalmMostly Cloudy
4:00 AM75.2 °F73.4 °F94 %29.71 in5.6 miVariable1.2 mphRainLight Rain Showers
5:00 AM76.0 °F74.0 °F90 %29.72 in11.0 miEast (90°)4.5 mphHaze
5:00 AM75.2 °F73.4 °F94 %29.71 in5.6 miEast (90°)4.6 mphMostly Cloudy
6:00 AM77.0 °F73.4 °F89 %29.71 in5.6 miVariable3.5 mphMostly Cloudy
7:00 AM77.0 °F75.2 °F94 %29.74 in6.2 miCalmMostly Cloudy
8:00 AM78.8 °F75.2 °F89 %29.74 in6.2 miVariable3.5 mphRainRain
8:00 AM79.0 °F74.0 °F82 %29.75 in6.0 miWSW (250°)4.5 mphHaze
9:00 AM80.6 °F75.2 °F84 %29.74 in6.2 miWest (260°)8.1 mphMostly Cloudy
10:00 AM80.6 °F77.0 °F89 %29.74 in5.0 miSouth (170°)3.5 mphMostly Cloudy
11:00 AM80.0 °F76.0 °F84 %29.76 in6.0 miSouth (180°)2.2 mphRainLight Rain Showers
11:00 AM80.6 °F77.0 °F89 %29.74 in5.0 miSouth (180°)1.2 mphOvercast
12:00 PM80.6 °F77.0 °F89 %29.74 in5.0 miSouth (190°)4.6 mphOvercast
1:00 PM80.6 °F77.0 °F89 %29.71 in5.0 miSouth (190°)12.7 mphMostly Cloudy
2:00 PM81.0 °F75.0 °F78 %29.71 in6.0 miSouth (190°)8.9 mphRainLight Rain
2:00 PM80.6 °F75.2 °F84 %29.71 in5.6 miSouth (190°)8.1 mphRainLight Rain
3:00 PM80.6 °F75.2 °F84 %29.71 in5.6 miSouth (190°)8.1 mphRainLight Rain
4:00 PM80.6 °F75.2 °F84 %29.71 in6.2 miSouth (180°)5.8 mphMostly Cloudy
5:00 PM80.0 °F76.0 °F82 %29.71 in6.0 miSouth (190°)6.7 mphRainLight Rain Showers
5:00 PM80.6 °F75.2 °F84 %29.71 in5.6 miSouth (190°)6.9 mphRainLight Rain Showers
6:00 PM78.8 °F75.2 °F89 %29.71 in5.6 miSSE (160°)6.9 mphRainLight Rain Showers
8:00 PM77.0 °F74.0 °F90 %29.73 in6.0 miEast (90°)2.2 mphHaze
8:00 PM77.0 °F73.4 °F89 %29.71 in6.2 miVariable1.2 mphMostly Cloudy
10:00 PM77.0 °F75.2 °F94 %29.74 in5.6 miEast (80°)13.8 mphRainRain Showers
11:00 PM78.0 °F75.0 °F87 %29.75 in6.0 miCalmPartly Cloudy
11:00 PM77.0 °F75.2 °F94 %29.74 in5.6 miCalmRainRain Showers
Hourly data recorded from RPLB, located miles away from Olongapo, Philippines







STORIES FROM OUR PARTNERS